Theta_e
344 345 342 341 341 342 341 340 340 339 340 340 340 341 341 343 345 345 344 343 343 342 342 343 343 342 341 342 342 342 341 340 340 342 341 343 342 341 338 338 342 343
343 343 344 343 343 342 342 341 340 341 342 342 342 342 343 343 343 343 342 342 342 342 342 341 342 342 342 340 341 339 339 340 339 340 340 342 341 339 337 339 337 338
343 342 341 342 340 340 337 340 340 342 341 341 342 342 342 342 342 343 343 342 341 341 341 341 340 340 339 340 340 339 337 337 338 340 339 338 339 341 340 339 340 340
344 342 340 340 340 339 339 339 341 342 342 340 340 341 340 341 341 341 341 341 341 340 340 341 340 339 339 339 339 339 339 339 338 337 336 337 338 338 337 336 334 334
341 342 342 341 340 341 339 338 339 339 340 339 340 341 341 341 341 340 340 339 340 339 339 338 338 338 339 339 339 339 340 339 338 338 338 337 338 338 337 337 336 334
342 342 343 342 342 341 340 338 338 339 339 338 339 340 340 340 340 339 339 338 337 336 337 338 337 337 338 339 340 340 341 339 339 340 341 341 338 337 337 337 335 333
342 343 343 342 341 341 339 339 339 340 339 340 340 340 340 338 339 340 340 339 338 339 338 340 341 340 340 340 339 340 340 340 341 340 338 337 338 335 335 334 333 332
342 342 342 343 341 340 339 338 337 337 339 341 338 340 340 338 339 338 339 338 338 338 339 339 341 342 340 339 339 338 338 338 337 337 339 338 338 334 332 332 333 332
342 341 341 340 339 338 336 334 333 335 336 336 337 337 339 339 338 338 339 340 339 339 341 341 343 341 341 341 338 338 340 340 337 338 338 338 337 332 331 332 331 331
342 342 340 338 336 337 336 335 332 333 336 336 335 334 334 338 339 339 339 339 338 339 339 340 341 341 341 340 337 338 340 340 338 338 338 337 333 331 330 331 330 330
341 341 340 340 338 334 335 334 332 331 334 334 334 335 335 336 336 337 337 337 335 337 341 343 340 336 337 338 338 339 340 339 339 339 336 335 333 331 331 330 330 329
341 341 339 338 337 336 336 336 335 335 334 333 334 333 334 333 334 334 334 335 336 336 338 341 341 339 338 337 337 339 339 339 338 337 335 333 332 331 330 330 330 329
339 339 339 338 337 337 337 336 334 333 333 334 334 333 332 332 332 333 334 334 335 335 334 336 340 339 340 336 334 335 338 340 338 336 333 332 332 330 330 330 329 329
338 339 339 339 338 339 338 337 336 336 337 338 337 335 332 332 331 331 332 333 334 334 334 335 337 342 341 338 335 335 335 337 336 336 333 332 331 331 330 330 330 329
340 339 339 339 338 338 337 337 337 337 338 337 336 335 334 333 333 332 333 333 333 334 335 335 337 341 341 338 338 339 338 336 335 335 331 330 331 330 330 330 330 329
341 341 340 340 338 337 338 338 337 337 337 337 335 334 335 334 335 334 332 332 331 333 334 335 338 340 337 334 334 338 336 335 335 333 332 331 330 329 329 329 330 329
341 340 340 339 340 338 338 338 338 339 339 337 336 335 335 335 334 332 331 331 331 332 334 336 337 338 330 326 327 330 334 335 334 332 331 330 330 329 328 329 331 330
339 339 339 338 339 338 338 338 339 338 338 338 336 334 334 333 332 332 332 333 332 333 334 335 335 332 324 325 327 327 330 336 335 332 330 329 328 329 330 330 329 328
339 338 337 337 338 338 339 339 338 338 337 336 334 333 332 333 333 331 332 332 332 332 331 332 334 326 323 324 325 324 325 329 334 333 329 327 328 329 331 331 329 329
338 337 336 337 337 338 338 338 338 337 337 335 333 334 333 331 330 331 332 334 334 333 333 332 331 325 322 323 323 322 323 327 336 334 330 329 330 332 332 332 332 332
337 336 336 336 337 338 339 339 338 340 338 334 331 331 331 332 331 331 333 335 332 333 332 331 330 322 318 320 320 319 321 325 335 335 331 330 330 331 332 333 333 333
336 336 337 337 337 338 339 339 339 340 338 335 332 330 332 332 331 331 330 331 333 332 331 329 330 323 320 318 318 318 320 333 336 335 330 327 328 331 334 335 336 337
335 334 335 336 335 335 336 337 338 338 336 334 331 331 330 329 331 330 332 330 331 331 330 330 329 326 319 315 315 317 321 335 335 332 329 327 328 330 332 334 335 336
336 336 336 335 335 333 333 335 336 337 334 334 331 329 328 328 331 332 332 333 332 331 329 329 329 325 316 315 312 314 319 335 333 329 333 331 331 332 333 335 337 327
335 335 336 336 335 333 334 334 334 335 335 335 331 330 330 333 332 331 331 332 329 329 331 328 328 325 320 318 315 313 319 332 334 331 332 331 329 329 331 333 334 334
336 337 338 336 334 333 335 334 335 334 334 333 333 330 327 327 327 328 330 331 331 329 328 328 328 329 330 317 312 312 314 328 333 330 330 330 331 327 326 327 329 330
Wind_Speed
2 1 2 1 1 1 2 3 3 4 4 4 5 5 5 5 5 5 5 5 5 6 5 6 6 7 7 7 7 7 7 8 7 6 8 8 8 10 10 11 12 11
2 2 2 2 2 2 3 3 3 4 4 5 5 5 5 6 6 6 6 6 6 6 6 6 6 7 7 7 7 7 7 7 8 6 7 9 8 10 11 12 12 11
2 2 3 4 3 1 2 3 3 4 5 5 5 5 5 5 6 6 6 6 7 7 6 7 7 7 8 7 7 7 7 8 8 7 7 8 8 9 11 11 10 13
3 3 3 3 3 3 2 3 4 3 4 4 4 5 5 5 6 7 7 7 7 6 7 7 7 7 7 8 7 6 7 7 6 7 8 8 8 8 10 10 12 12
3 3 3 3 3 2 3 4 5 4 5 4 5 5 5 6 6 7 7 7 7 8 7 7 7 7 7 8 7 7 7 6 6 7 7 7 7 8 8 8 10 13
3 4 3 4 4 4 4 4 4 5 6 6 6 5 6 6 7 7 7 8 8 8 8 8 8 7 7 8 7 6 7 7 7 7 8 8 9 9 9 10 12 14
4 5 5 5 5 5 5 5 5 6 7 6 5 6 6 7 7 7 8 8 8 8 9 8 8 8 6 7 7 6 6 8 8 8 9 9 9 11 11 12 12 13
5 5 5 6 6 5 5 6 6 6 7 6 6 6 7 7 8 8 8 8 8 9 9 9 9 9 7 6 7 7 8 6 7 8 9 10 10 10 12 11 12 13
5 5 6 6 6 5 7 7 7 6 4 7 6 6 6 7 8 8 9 9 10 10 10 9 9 9 6 6 6 7 7 6 7 8 9 10 10 11 12 11 12 12
6 6 6 6 7 6 7 7 7 9 6 5 6 7 8 7 8 9 9 9 10 11 11 10 10 8 8 7 7 7 7 7 7 7 8 9 10 11 11 11 11 12
7 6 7 7 7 7 8 8 9 7 6 7 8 9 8 7 8 8 8 9 9 10 10 8 10 11 10 9 7 6 7 7 6 7 8 9 10 10 10 10 11 11
7 6 7 7 7 7 7 8 7 7 9 8 7 9 9 9 9 8 8 10 10 10 9 9 7 5 10 13 13 9 7 7 7 8 8 8 9 9 9 10 9 10
7 7 7 7 6 6 7 7 7 8 8 9 9 10 11 10 10 9 8 9 10 11 10 8 8 5 3 4 8 12 10 7 7 9 9 8 7 8 9 9 9 9
6 6 6 6 6 6 6 7 6 6 6 7 9 10 11 10 11 10 9 9 10 11 10 9 6 4 5 4 5 7 11 9 8 8 9 9 8 8 8 8 8 8
6 5 6 6 6 6 7 7 6 6 7 8 8 9 9 10 11 10 10 11 11 11 10 9 7 6 3 4 6 9 8 7 8 9 10 9 8 8 7 7 7 7
6 6 6 6 6 6 7 7 6 7 7 8 9 9 9 9 9 9 10 11 11 10 9 7 6 4 6 9 8 5 7 7 8 10 10 9 9 8 8 8 7 7
6 6 7 7 7 7 7 7 7 7 7 8 8 9 10 9 8 9 9 10 11 10 9 8 6 1 10 9 5 3 5 8 9 9 10 10 10 9 9 8 7 8
6 6 7 7 7 8 8 8 7 7 7 8 8 9 9 8 8 8 8 9 9 9 9 8 7 3 9 8 9 8 8 7 9 9 9 9 9 9 8 8 8 8
7 7 7 7 7 8 8 7 8 8 8 8 8 7 8 7 7 9 8 9 9 9 9 9 7 7 9 10 10 11 11 10 8 10 10 10 10 10 9 8 7 8
7 7 8 7 7 8 8 8 8 8 7 8 7 7 6 7 9 9 9 6 9 8 7 7 7 6 8 11 11 12 12 9 9 10 11 11 11 10 10 9 9 8
8 8 8 7 7 8 8 8 8 7 7 7 7 7 7 7 7 8 8 4 4 5 7 7 5 5 7 9 11 12 12 9 8 9 10 12 11 10 10 11 10 9
8 7 7 7 8 8 8 9 8 7 7 7 7 8 6 6 7 7 7 5 2 3 6 7 7 2 6 9 11 13 12 8 8 9 10 11 10 9 9 10 10 9
8 8 7 7 8 9 9 8 7 7 7 7 8 7 7 7 6 7 6 6 6 6 7 7 8 9 9 8 10 12 9 8 9 8 9 11 11 10 10 10 10 9
7 7 7 7 7 9 9 7 7 6 7 6 7 8 9 8 6 7 7 6 6 7 7 8 9 3 3 5 5 7 9 9 8 10 8 9 11 11 9 9 7 9
7 7 7 7 7 8 8 7 6 7 7 6 7 8 8 7 7 7 7 6 7 7 4 7 8 7 5 7 9 9 7 8 8 8 7 7 10 11 10 8 10 8
7 7 7 7 8 8 7 5 6 7 7 8 8 8 9 10 9 8 8 7 7 8 8 8 8 7 7 7 8 11 12 8 8 8 7 9 10 11 10 9 8 9
Wind_Direction
266 219 291 280 309 284 301 303 302 311 305 298 294 308 306 305 304 299 297 297 308 304 312 315 316 315 315 311 311 313 312 313 315 315 315 308 309 310 304 302 297 293
251 224 233 252 227 238 245 266 297 301 303 294 286 301 305 296 293 296 295 299 295 294 302 308 305 304 305 309 313 314 311 313 316 323 311 308 310 310 307 311 310 305
215 244 225 223 245 248 278 290 292 293 293 304 307 287 279 287 296 295 295 289 287 289 293 295 296 302 305 304 305 304 305 310 314 318 318 320 314 309 315 315 312 311
212 239 253 241 246 239 244 268 270 278 287 289 294 297 296 298 295 291 286 281 277 280 284 283 288 298 302 299 303 301 302 302 307 310 318 320 314 321 316 316 319 316
219 219 220 251 249 243 266 266 271 292 297 307 297 287 279 283 287 288 286 285 282 279 273 280 285 291 301 307 316 309 300 296 306 315 307 306 318 314 311 313 311 311
213 210 224 234 237 238 254 273 284 287 294 293 298 303 299 293 289 289 290 289 291 294 299 296 294 296 304 306 312 309 307 310 315 313 315 315 321 321 317 316 316 315
218 206 216 221 227 233 247 261 282 279 276 283 291 284 285 284 281 282 285 283 287 292 292 293 291 292 293 299 300 302 300 304 309 315 314 311 312 316 317 318 318 316
219 219 217 220 226 239 249 258 266 261 256 257 261 279 284 290 286 286 285 286 287 286 287 288 286 287 295 296 301 301 296 294 303 307 310 313 313 321 321 322 321 318
222 219 218 228 237 245 255 270 264 273 271 254 266 276 271 273 283 281 285 287 283 282 282 283 283 284 289 290 292 290 284 295 308 313 313 311 314 319 323 327 324 325
211 216 234 245 239 234 246 268 274 256 264 336 320 299 290 286 278 276 274 277 282 285 282 277 278 283 287 280 278 282 293 295 302 307 309 311 317 322 328 328 329 328
218 225 226 227 238 254 264 269 278 316 344 306 271 264 279 282 279 275 270 266 273 281 290 294 291 289 291 283 285 287 284 293 302 304 306 310 319 322 325 326 332 334
215 227 239 245 251 257 261 275 286 276 261 263 310 323 307 289 283 284 292 296 288 278 274 271 273 317 319 316 307 301 291 293 298 297 301 311 316 319 322 327 336 336
219 224 231 241 243 246 257 263 273 302 324 325 308 296 294 289 287 291 292 290 289 289 277 261 263 266 257 272 303 307 304 294 291 290 297 304 310 312 318 323 336 332
229 231 236 238 246 260 268 271 287 297 293 284 280 280 284 294 300 297 294 293 293 288 288 290 293 220 227 225 251 260 270 274 282 288 298 302 303 305 313 323 330 328
229 235 238 237 237 247 253 264 272 279 282 284 281 279 285 297 300 304 309 302 289 285 291 295 279 260 227 234 244 247 261 282 284 288 296 297 298 303 307 312 314 323
219 226 233 236 243 247 262 266 268 271 281 288 288 288 292 293 302 300 291 285 291 295 289 288 288 257 274 242 246 276 287 286 287 294 297 293 294 293 295 305 305 307
217 225 229 233 233 246 254 263 265 271 282 288 290 291 289 288 282 286 294 302 302 299 297 292 280 154 184 185 155 221 262 276 289 296 292 291 290 291 293 301 297 297
229 233 237 236 240 248 256 262 269 270 273 278 281 284 289 294 295 295 297 289 288 295 296 297 295 154 176 163 192 198 221 258 281 290 293 290 291 288 288 294 300 299
226 236 241 240 242 250 255 261 264 266 270 276 283 294 292 288 288 286 290 295 293 302 309 312 320 143 191 192 201 210 216 234 263 279 289 293 291 285 282 284 296 296
224 231 237 244 247 249 254 259 262 265 273 281 281 282 293 301 299 296 291 318 9 347 320 300 322 233 207 205 211 215 222 224 256 272 287 290 291 288 279 279 286 297
224 227 241 251 251 247 246 254 260 257 267 277 282 285 280 282 296 297 297 101 202 251 278 292 278 172 235 236 230 225 229 225 254 267 286 287 282 281 288 286 284 287
219 226 240 249 257 257 254 254 254 249 255 262 269 270 274 286 284 300 310 304 281 296 297 294 299 269 262 248 244 239 233 238 248 261 275 286 290 283 265 267 273 279
219 231 234 238 255 261 263 261 258 247 248 256 260 262 270 275 286 283 285 290 300 302 297 299 297 271 254 276 273 251 240 250 261 271 295 305 302 288 279 281 275 279
221 233 236 244 256 263 261 258 256 249 252 249 261 277 276 276 278 276 270 276 284 283 290 304 299 323 98 288 266 253 242 254 271 290 310 313 301 290 288 281 286 293
237 245 248 239 244 256 258 260 268 272 261 255 265 272 274 268 255 264 271 279 284 295 292 273 290 296 283 280 273 264 248 257 266 281 281 289 293 303 306 303 302 283
236 247 242 245 250 254 255 258 261 266 261 260 266 275 281 287 282 278 276 281 292 293 291 295 295 293 292 285 295 300 284 265 252 267 282 297 301 304 313 307 303 303